sat.trackr.live / text

‹ back to catalog

COSMOS 2527 (756)

NORAD 43508 · 2018-053A

PAYLOAD ACTIVE UNKNOWN

§ Identity

Operator
Country
CIS
Launch date
2018-06-16
Launch site
PLMSC
Launch vehicle
Mass (kg)
RCS (m²)

Purposes: nav

External: N2YO · Heavens-Above · Gunter

§ Orbital elements

Epoch: 2026-09-19T09:45:01.396224Z

Period
675.73 min
Inclination
65.6353°
Eccentricity
0.0007297
Mean motion
2.13102231 rev/d
Perigee alt
19,111.3 km
Apogee alt
19,148.5 km
Semi-major
25,508.0 km
B*
0.0000e+0
RAAN
70.7673°
Arg perigee
213.1488°
Mean anomaly
146.8386°
Rev number
6,428

§ Raw data

COSMOS 2527 (756)1 43508U 18053A   26262.40626616  .00000031  00000+0  00000+0 0  99982 43508  65.6353  70.7673 0007297 213.1488 146.8386  2.13102231 64283

JSON: /api/v1/satellites/43508 · /tle

For live sub-satellite position, see the globe view (requires WebGL).

§ Visibility from observer

Set your observer location to see the next 7 days of passes ≥ 10°. The values pass through the URL so the page stays shareable.

No JS? Fill the form by hand. The geolocation button needs JavaScript.